Flag for U.S.A. Weather past 2 weeks in Manassas, Virginia, U.S.A.

Now
77 °F

Sunny.


Feels Like: 79 °F
Forecast: 60 / 84 °F
Wind: 3 mph from South

Location: Manassas Municipal

Current Time: Jul 30, 2014 at 9:54:00 PM

Latest Report: Jul 30, 2014 at 6:50 PM


Visibility: 10 mi

Pressure: 30.03 "Hg

Humidity: 47%

Dew point: 55 °F

Location of ManassasLocation

Historic Weather in Manassas — Graph

°F

Manassas temperature yesterday

Maximum temperature yesterday: 75 °F (at 2:45 PM)
Minimum temperature yesterday: 55 °F (at 11:35 PM)
Average temperature yesterday: 66 °F

Past Weeks' High & Low Weather Summary

 TemperatureHumidityPressure
High91 °F (Jul 23, 2:50 PM)100% (Jul 16, 9:55 PM)30.25 "Hg (Jul 16, 9:55 PM)
Low52 °F (Jul 30, 3:55 AM)37% (Jul 26, 11:50 AM)29.60 "Hg (Jul 28, 3:35 AM)
Average71 °F84%30.00 "Hg
* Reported Jul 15 8:55 PM — Jul 30 6:50 PM, Manassas, Weather by CustomWeather, © 2014

Note: Actual official high and low records may vary slightly from our data, if they occured in-between our weather recording intervals... More about our weather records

Advertising

Manassas weather history for previous 24 hours

 ConditionsComfort  
Time TempWeatherWind HumidityBarometerVisibility
6:50 PM
Jul 30
77 °FSunny.3 mph47%30.03 "Hg10 mi
4:45 PM79 °FSunny.3 mph42%30.04 "Hg10 mi
3:45 PM79 °FSunny.5 mph39%30.06 "Hg10 mi
2:45 PM77 °FPassing clouds.5 mph42%30.07 "Hg10 mi
1:55 PM77 °FScattered clouds.7 mph44%30.07 "Hg10 mi
12:50 PM75 °FScattered clouds.No wind47%30.08 "Hg10 mi
11:55 AM73 °FPartly sunny.No wind47%30.10 "Hg10 mi
10:45 AM70 °FSunny.No wind60%30.10 "Hg10 mi
9:45 AM66 °FSunny.No wind73%30.09 "Hg10 mi
8:45 AM61 °FSunny.No wind88%30.10 "Hg10 mi
7:45 AM54 °FSunny.No wind100%30.08 "Hg10 mi
6:45 AM52 °FClear.No wind100%30.08 "Hg7 mi
6:35 AM52 °FClear.No wind94%30.07 "Hg9 mi
5:55 AM52 °FClear.No wind100%30.06 "Hg7 mi
5:35 AM52 °FClear.No wind100%30.06 "Hg7 mi
5:15 AM52 °FClear.No wind94%30.05 "Hg7 mi
4:55 AM52 °FClear.No wind100%30.04 "Hg6 mi
4:35 AM52 °FClear.No wind100%30.04 "Hg6 mi
4:15 AM52 °FClear.No wind100%30.04 "Hg8 mi
3:55 AM52 °FClear.No wind100%30.04 "Hg9 mi
3:35 AM54 °FClear.No wind100%30.04 "Hg8 mi
3:15 AM54 °FClear.No wind100%30.04 "Hg7 mi
2:55 AM54 °FClear.No wind94%30.04 "Hg10 mi
2:35 AM54 °FClear.No wind100%30.04 "Hg10 mi
2:15 AM54 °FClear.No wind94%30.04 "Hg7 mi
1:55 AM54 °FClear.No wind100%30.04 "Hg6 mi
1:35 AM54 °FClear.No wind100%30.04 "Hg10 mi
12:55 AM55 °FClear.No wind100%30.05 "Hg10 mi
12:35 AM55 °FClear.No wind100%30.05 "Hg10 mi
12:15 AM55 °FClear.No wind100%30.05 "Hg10 mi
11:55 PM
Jul 29
55 °FClear.No wind100%30.04 "Hg10 mi
11:35 PM55 °FClear.No wind100%30.04 "Hg10 mi
10:55 PM57 °FClear.No wind94%30.04 "Hg10 mi
9:55 PM57 °FClear.No wind88%30.03 "Hg10 mi
Weather by CustomWeather, © 2014

See weather overviewHow to use our weather pages